Location: Bourg-d�Oueil
(42.8588°N, 0.4991°E)
Time: 13:36:36
(UTC+00:00)

FALCON 9 DEB - Pass Details

Date: 16 June 2021
Orbit: 422 x 432 km, 53.0° (Epoch: 31 July)

Event Time Altitude Azimuth Distance (km) Brightness Sun altitude
Rises 21:14:23 0° 230° (SW) 2,390 6.9 -13.7°
Reaches altitude 10° 21:16:29 10° 229° (SW) 1,525 5.9 -13.9°
Maximum altitude 21:19:54 81° 142° (SE) 439 3.0 -14.3°
Drops below altitude 10° 21:23:20 10° 56° (NE) 1,526 5.9 -14.7°
Sets 21:25:26 0° 55° (NE) 2,393 6.9 -14.9°
